Retour au catalogue

SL-14 R/B

ActifPO
NORAD 23005·ROCKET BODY·🇷🇺 Russia

Lancé Feb 12, 1994 depuis Plesetsk Cosmodrome

Loading…

Prochains Passages (prochaines 24 heures)

TLE

FraisSource: Space-Track

Époque: Sep 14, 2026, 06:39 UTC

1 23005U 94011G   26257.27738301  .00000017  00000-0  40734-4 0  9998
2 23005  82.5829   6.7617 0040055 274.6120 112.5088 12.55224764492939

Suivez SL-14 R/B en temps réel avec AllMySat

Download on the App Store